Regional Weather Roundup
Issued by NWS

Home | Current Version | Previous Version | Graphics & Text | Print | Product List | Glossary On
Versions: 1 2 3 4 5 6 7 8 9 10 11 12 13 14 15 16 17 18 19 20 21 22 23 24 25 26 27 28 29 30 31 32 33 34 35 36 37 38 39 40 41 42 43 44 45 46 47 48 49 50
581
ASUS44 KLIX 292201
RWRLA
LOUISIANA WEATHER ROUNDUP
NATIONAL WEATHER SERVICE NEW ORLEANS LA
400 PM CST THU JAN 29 2015

NOTE: "FAIR" INDICATES FEW OR NO CLOUDS BELOW 12,000 FEET WITH NO
      SIGNIFICANT WEATHER AND/OR OBSTRUCTIONS TO VISIBILITY.
      SKY/WX - SKY CONDITION AND SIGNIFICANT WEATHER.
      TMP - AIR TEMPERATURE.    DP   - DEWPOINT TEMPERATURE.
      RH  - RELATIVE HUMIDITY.  PRES - PRESSURE.
      HX  - HEAT INDEX.         WCI  - WIND CHILL INDEX.

*  THESE STATIONS ARE NOT NWS OR FAA STATIONS AND ARE NOT UNDER
   NWS QUALITY CONTROL.

LAZ040-048-061>063-065-066-069-292300-
SOUTHEAST LOUISIANA

CITY           SKY/WX    TMP DP  RH WIND       PRES   REMARKS
N.O. AUDUBON     N/A     73  60  64 MISG        N/A
N.O. INTL ARPT MOSUNNY   76  54  46 SW12      30.17F
N.O. LAKEFRONT SUNNY     71  56  58 N5        30.18F
N.O. DOWNTOWN* NOT AVBL
SLIDELL        SUNNY     74  55  51 SW7G16    30.16F
BATON ROUGE    SUNNY     76  47  35 W13       30.16F
BOOTHVILLE     SUNNY     69  57  65 S9        30.22S
BELLE CHASSE   PTSUNNY   75  56  51 SW13      30.18F
BOGALUSA*        N/A     76  55  47 SW10G17   30.16F
GALLIANO*      NOT AVBL
NEW ROADS*     NOT AVBL
GONZALES*      NOT AVBL
HAMMOND*       NOT AVBL
HOUMA*         MOSUNNY   73  57  56 W12       30.19F
PORT FOURCHON* CLEAR     72  61  68 S7        30.25S

$$

LAZ041-044-053-054-292300-
SOUTHWEST LOUISIANA

CITY           SKY/WX    TMP DP  RH WIND       PRES   REMARKS
LAKE CHARLES   SUNNY     74  57  55 SW8       30.18S
LAFAYETTE      SUNNY     74  56  53 SW8       30.19S
PATTERSON      SUNNY     72  55  56 W15       30.21S
SALT POINT       N/A     65  61  87 VRB5      30.20S
NEW IBERIA     SUNNY     75  58  55 SW9       30.19S
CHENAULT AIRPK SUNNY     75  55  50 SW9       30.18S

$$

LAZ027-028-292300-
CENTRAL LOUISIANA

CITY           SKY/WX    TMP DP  RH WIND       PRES   REMARKS
FORT POLK      PTSUNNY   75  51  41 W8        30.17R
ALEXANDRIA INT MOSUNNY   75  50  41 W9        30.15R
ALEXANDRIA     MOSUNNY   77  51  40 W10       30.15S

$$

LAZ001-002-292300-
NORTHWEST LOUISIANA

CITY           SKY/WX    TMP DP  RH WIND       PRES   REMARKS
SHREVEPORT     PTSUNNY   74  42  31 NW14      30.18R
BARKSDALE AFB  SUNNY     74  41  30 N10       30.18R
DTN SHREVEPORT SUNNY     74  38  27 N10G18    30.19R

$$

LAZ014-016-292300-
NORTHEAST LOUISIANA

CITY           SKY/WX    TMP DP  RH WIND       PRES   REMARKS
MONROE         PTSUNNY   74  50  42 NW12      30.16R
TALLULAH       MOSUNNY   73  51  46 W8        30.14R

$$




USA.gov is the U.S. government's official web portal to all federal, state and local government web resources and services.